Location: Izdebno
(52.6670°N, 16.2170°E)
Time: 04:31:19
(UTC+02:00)

Transit 4A - Pass Details

Date: 27 February 2024
Orbit: 871 x 972 km, 66.8° (Epoch: 22 April)

Event Time Altitude Azimuth Distance (km) Brightness Sun altitude
Rises 05:15:45 0° 296° (WNW) 3,554 - -14.7°
Exits shadow 05:18:39 - 310° (NW) 2,682 9.9 -14.3°
Reaches altitude 10° 05:18:59 10° 312° (NW) 2,593 9.8 -14.2°
Maximum altitude 05:23:24 21° 360° (N) 1,918 9.6 -13.5°
Drops below altitude 10° 05:27:45 10° 48° (NE) 2,551 11.0 -12.9°
Sets 05:30:54 0° 64° (ENE) 3,479 12.2 -12.4°
